ARIANE 5 DEB (SYLDA)

基本信息
目录编号:
27511
目录名称:
ARIANE 5 DEB (SYLDA)
国际标识:
2002-040D
轨道中心:
EARTH
物体状态:
在轨
发射日期:
2002-08-28 UTC
轨道信息
数据来源: 国际轨道数据
星历时间: 2026-07-14T07:28:09+0800
半长轴: 24537.989km
偏心率: 0.7168807
轨道倾角: 5.824°
近地点辐角: 212.510°
升交点赤经: 70.881°
平近点角: 350.422°
近地点: 569.041km
远地点: 35750.663km
周期: 637.556分钟
每日圈数: 2.258626
详细信息
发射场:
FRGUI
轨道高度:
LEO
数据来源:
AOE Integration Group
参考系:
TEME
时间系统:
UTC
历元类型:
SGP4
2D轨道图
3D轨道图
轨道高度分析图
轨道倾角分析图
轨道综合分析图
查看轨道综合分析图